No particular awareness of the weather is required.    There are no Weather-warnings


Meteo18 Weather Cam more information Meteo18 Weather Cam


Thunder radar more information blitzortung!


Rain radar more information rain snow radar


Visit our other weather sites:

Template documentation
and downloads

And another site



Weather Underground History page Text

Daily Summary for March 6, 2018 Units:  Metric    English   Both
« Previous Day
Next Day »
Daily Weekly Monthly Yearly Custom
  High: Low: Average:
Temperature: -17.8 °C -14.9 °C -13.7 °C
Dew Point: -17.8 °C -15.4 °C -14.8 °C
Humidity: Humidity % 67 % 87 %
Wind Speed: 0 km/h 0 km/h 10.1 km/h
Wind Gust: 0 km/h - -
Wind:- - SW
Pressure: 0 hPa 33568.8 hPa -
Precipitation: 76.2 mm    
Historical Graphs
 
 
Tabular Data for March 6, 2018
Time Temperature Dew Point Pressure Wind Wind Speed Wind Gust Humidity Rainfall Rate (Hourly)
-17.8 °C -17.8 °C 0 hPa Calm     Humidity % 0 mm
00:03 -13.5 °C -14.1 °C 33568.8 hPa SSW 5.1 km/h 10.3 km/h 93 % 0 mm
00:09 -13.6 °C -14.2 °C 33568.8 hPa WSW 2.3 km/h 7.7 km/h 93 % 0 mm
00:15 -13.6 °C -14.1 °C 33568.8 hPa West 5.1 km/h 7.7 km/h 94 % 0 mm
00:27 -13.6 °C -14.2 °C 33568.8 hPa West 5.1 km/h 5.1 km/h 93 % 0 mm
00:33 -13.5 °C -14.1 °C 33568.8 hPa West 5.1 km/h 10.3 km/h 93 % 0 mm
00:40 -13.5 °C -14.1 °C 33568.8 hPa WSW 5.1 km/h 10.3 km/h 93 % 0 mm
00:45 -13.5 °C -14.1 °C 33568.8 hPa WSW 2.3 km/h 7.7 km/h 93 % 0 mm
00:51 -13.5 °C -14.1 °C 33568.8 hPa West 5.1 km/h 7.7 km/h 93 % 0 mm
00:58 -13.6 °C -14.2 °C 33568.8 hPa WSW 5.1 km/h 12.9 km/h 93 % 0 mm
01:04 -13.6 °C -14.1 °C 33568.8 hPa WSW 10.3 km/h 15.6 km/h 94 % 0 mm
01:10 -13.6 °C -14.1 °C 33568.8 hPa WSW 12.7 km/h 12.9 km/h 94 % 0 mm
01:16 -13.6 °C -14.1 °C 33568.8 hPa WSW 10.3 km/h 12.9 km/h 94 % 0 mm
01:22 -13.7 °C -14.2 °C 33568.8 hPa WSW 10.3 km/h 15.6 km/h 94 % 0 mm
01:28 -13.7 °C -14.2 °C 33582.3 hPa SW 5.1 km/h 18.2 km/h 94 % 0 mm
01:34 -13.7 °C -14.2 °C 33582.3 hPa WSW 10.3 km/h 18.2 km/h 94 % 0 mm
01:40 -13.7 °C -14.2 °C 33582.3 hPa WSW 15.6 km/h 18.2 km/h 94 % 7.62 mm
01:46 -13.7 °C -14.2 °C 33582.3 hPa WSW 7.6 km/h 12.9 km/h 94 % 7.62 mm
01:52 -13.8 °C -14.3 °C 33582.3 hPa SW 5.1 km/h 10.3 km/h 94 % 7.62 mm
01:58 -13.8 °C -14.3 °C 33582.3 hPa WSW 5.1 km/h 7.7 km/h 94 % 7.62 mm
02:04 -13.8 °C -14.3 °C 33582.3 hPa West 2.3 km/h 5.1 km/h 94 % 7.62 mm
02:10 -13.8 °C -14.3 °C 33582.3 hPa SW 5.1 km/h 10.3 km/h 94 % 7.62 mm
02:16 -13.8 °C -14.3 °C 33582.3 hPa Calm   5.1 km/h 94 % 7.62 mm
02:22 -13.8 °C -14.3 °C 33582.3 hPa SW 7.6 km/h 7.7 km/h 94 % 7.62 mm
02:28 -13.9 °C -14.4 °C 33582.3 hPa SSW 5.1 km/h 7.7 km/h 94 % 7.62 mm
02:34 -13.9 °C -14.3 °C 33582.3 hPa SSW 7.6 km/h 10.3 km/h 95 % 7.62 mm
02:40 -14 °C -14.4 °C 33582.3 hPa SSW 2.3 km/h 7.7 km/h 95 % 0 mm
02:46 -14 °C -14.4 °C 33582.3 hPa SSW 2.3 km/h 7.7 km/h 95 % 0 mm
02:52 -14.1 °C -14.4 °C 33582.3 hPa SSW 5.1 km/h 7.7 km/h 95 % 0 mm
02:58 -14.1 °C -14.4 °C 33582.3 hPa SSW 5.1 km/h 5.1 km/h 95 % 0 mm
03:04 -14.1 °C -14.4 °C 33582.3 hPa SW 5.1 km/h 15.6 km/h 95 % 0 mm
03:10 -14 °C -14.4 °C 33582.3 hPa WSW 2.3 km/h 12.9 km/h 95 % 0 mm
03:16 -13.9 °C -14.3 °C 33582.3 hPa WSW 7.6 km/h 12.9 km/h 95 % 0 mm
03:22 -13.9 °C -14.4 °C 33582.3 hPa WSW 2.3 km/h 12.9 km/h 94 % 0 mm
03:28 -13.9 °C -14.4 °C 33582.3 hPa WSW 2.3 km/h 10.3 km/h 94 % 0 mm
03:34 -13.9 °C -14.4 °C 33582.3 hPa West 2.3 km/h 5.1 km/h 94 % 0 mm
03:40 -14 °C -14.5 °C 33582.3 hPa WSW 2.3 km/h 7.7 km/h 94 % 0 mm
03:46 -14 °C -14.5 °C 33582.3 hPa West 2.3 km/h 5.1 km/h 94 % 0 mm
03:52 -14 °C -14.5 °C 33582.3 hPa WSW 10.3 km/h 10.3 km/h 94 % 0 mm
03:58 -14 °C -14.5 °C 33582.3 hPa WSW 10.3 km/h 15.6 km/h 94 % 0 mm
04:04 -14.1 °C -14.7 °C 33582.3 hPa West 7.6 km/h 10.3 km/h 93 % 0 mm
04:10 -14.1 °C -14.7 °C 33582.3 hPa WNW 5.1 km/h 10.3 km/h 93 % 0 mm
04:16 -14.2 °C -14.7 °C 33582.3 hPa West 5.1 km/h 7.7 km/h 94 % 0 mm
04:22 -14.2 °C -14.7 °C 33582.3 hPa West 10.3 km/h 12.9 km/h 94 % 0 mm
04:28 -14.3 °C -14.8 °C 33582.3 hPa WNW 5.1 km/h 10.3 km/h 94 % 0 mm
04:34 -14.3 °C -14.8 °C 33582.3 hPa West 2.3 km/h 7.7 km/h 94 % 0 mm
04:40 -14.3 °C -14.8 °C 33582.3 hPa Calm   7.7 km/h 94 % 0 mm
04:46 -14.3 °C -14.8 °C 33582.3 hPa WSW 5.1 km/h 5.1 km/h 94 % 0 mm
04:52 -14.3 °C -14.8 °C 33582.3 hPa SSW 2.3 km/h 5.1 km/h 94 % 0 mm
04:58 -14.4 °C -14.9 °C 33582.3 hPa SW 2.3 km/h 10.3 km/h 94 % 0 mm
05:04 -14.4 °C -14.9 °C 33592.5 hPa SW 7.6 km/h 10.3 km/h 94 % 0 mm
05:10 -14.5 °C -15 °C 33592.5 hPa SW 5.1 km/h 5.1 km/h 94 % 0 mm
05:16 -14.6 °C -15.1 °C 33592.5 hPa Calm     94 % 0 mm
05:22 -14.6 °C -15.1 °C 33592.5 hPa Calm   10.3 km/h 94 % 0 mm
05:28 -14.7 °C -15.1 °C 33592.5 hPa SE 2.3 km/h 2.6 km/h 95 % 0 mm
05:34 -14.7 °C -15.1 °C 33592.5 hPa Calm   15.6 km/h 95 % 0 mm
05:40 -14.7 °C -15.1 °C 33592.5 hPa West 10.3 km/h 12.9 km/h 95 % 0 mm
05:46 -14.6 °C -14.9 °C 33582.3 hPa WNW 10.3 km/h 12.9 km/h 95 % 0 mm
05:52 -14.6 °C -15.1 °C 33592.5 hPa WSW 10.3 km/h 15.6 km/h 94 % 0 mm
05:58 -14.6 °C -15.1 °C 33592.5 hPa West 12.7 km/h 12.9 km/h 94 % 0 mm
06:04 -14.6 °C -15.1 °C 33592.5 hPa WNW 7.6 km/h 15.6 km/h 94 % 0 mm
06:10 -14.5 °C -15 °C 33592.5 hPa West 12.7 km/h 23.3 km/h 94 % 0 mm
06:16 -14.5 °C -15 °C 33592.5 hPa SW 2.3 km/h 12.9 km/h 94 % 0 mm
06:22 -14.4 °C -14.9 °C 33602.7 hPa WNW 7.6 km/h 7.7 km/h 94 % 0 mm
06:28 -14.5 °C -15 °C 33602.7 hPa West 5.1 km/h 7.7 km/h 94 % 0 mm
06:34 -14.5 °C -15 °C 33602.7 hPa WSW 5.1 km/h 15.6 km/h 94 % 0 mm
06:40 -14.4 °C -14.9 °C 33602.7 hPa West 12.7 km/h 12.9 km/h 94 % 0 mm
06:46 -14.4 °C -14.9 °C 33602.7 hPa West 10.3 km/h 15.6 km/h 93 % 0 mm
06:52 -14.4 °C -14.9 °C 33602.7 hPa West 10.3 km/h 10.3 km/h 93 % 0 mm
06:58 -14.4 °C -14.9 °C 33602.7 hPa WSW 7.6 km/h 7.7 km/h 93 % 0 mm
07:04 -14.4 °C -14.9 °C 33602.7 hPa WSW 2.3 km/h 5.1 km/h 94 % 0 mm
07:10 -14.4 °C -14.9 °C 33602.7 hPa WSW 2.3 km/h 5.1 km/h 94 % 0 mm
07:16 -14.4 °C -14.9 °C 33602.7 hPa WSW 2.3 km/h 5.1 km/h 94 % 0 mm
07:22 -14.4 °C -14.9 °C 33602.7 hPa Calm   5.1 km/h 94 % 0 mm
07:28 -14.4 °C -14.9 °C 33602.7 hPa SW 2.3 km/h 10.3 km/h 94 % 0 mm
07:34 -14.4 °C -14.9 °C 33602.7 hPa SSW 5.1 km/h 7.7 km/h 94 % 0 mm
07:40 -14.5 °C -15 °C 33602.7 hPa SW 5.1 km/h 5.1 km/h 94 % 0 mm
07:46 -14.5 °C -14.9 °C 33602.7 hPa SW 5.1 km/h 10.3 km/h 95 % 0 mm
07:52 -14.5 °C -14.9 °C 33602.7 hPa Calm   5.1 km/h 95 % 0 mm
07:58 -14.5 °C -14.9 °C 33616.2 hPa West 7.6 km/h 10.3 km/h 95 % 0 mm
08:04 -14.5 °C -14.9 °C 33616.2 hPa West 5.1 km/h 10.3 km/h 95 % 0 mm
08:10 -14.4 °C -14.8 °C 33616.2 hPa WNW 2.3 km/h 10.3 km/h 95 % 0 mm
08:16 -14.4 °C -14.8 °C 33616.2 hPa West 7.6 km/h 10.3 km/h 95 % 0 mm
08:22 -14.4 °C -14.9 °C 33616.2 hPa SW 2.3 km/h 10.3 km/h 94 % 0 mm
08:28 -14.3 °C -14.8 °C 33626.4 hPa SW 7.6 km/h 12.9 km/h 94 % 0 mm
08:34 -14.4 °C -14.9 °C 33626.4 hPa SSW 12.7 km/h 20.8 km/h 94 % 0 mm
08:40 -14.5 °C -15 °C 33626.4 hPa SSW 10.3 km/h 20.8 km/h 94 % 0 mm
08:47 -14.6 °C -14.9 °C 33626.4 hPa WSW 15.6 km/h 15.6 km/h 95 % 0 mm
08:53 -14.4 °C -14.8 °C 33626.4 hPa SSW 12.7 km/h 12.9 km/h 95 % 0 mm
08:59 -14.4 °C -14.8 °C 33626.4 hPa SW 10.3 km/h 15.6 km/h 95 % 0 mm
09:05 -14.3 °C -14.7 °C 33626.4 hPa SW 15.6 km/h 15.6 km/h 95 % 0 mm
09:11 -14.4 °C -14.8 °C 33626.4 hPa WSW 20.9 km/h 20.9 km/h 95 % 0 mm
09:17 -14.3 °C -14.7 °C 33626.4 hPa SW 10.3 km/h 15.6 km/h 95 % 0 mm
09:23 -14.4 °C -14.8 °C 33639.9 hPa SW 10.3 km/h 18.2 km/h 95 % 0 mm
09:29 -14.3 °C -14.7 °C 33639.9 hPa SW 15.6 km/h 20.8 km/h 95 % 0 mm
09:35 -14.3 °C -14.7 °C 33639.9 hPa SW 10.3 km/h 18.2 km/h 95 % 0 mm
09:41 -14.2 °C -14.6 °C 33639.9 hPa SSW 10.3 km/h 20.8 km/h 95 % 0 mm
09:47 -14.2 °C -14.7 °C 33639.9 hPa West 12.7 km/h 15.6 km/h 94 % 0 mm
09:53 -14.2 °C -14.9 °C 33639.9 hPa South 15.6 km/h 25.9 km/h 92 % 0 mm
09:59 -14.2 °C -15.1 °C 33639.9 hPa SW 7.6 km/h 18.2 km/h 90 % 0 mm
10:05 -14.1 °C -14.9 °C 33639.9 hPa WSW 10.3 km/h 18.2 km/h 90 % 0 mm
10:11 -13.9 °C -14.9 °C 33639.9 hPa WSW 7.6 km/h 15.6 km/h 89 % 0 mm
10:17 -13.9 °C -15 °C 33639.9 hPa WSW 10.3 km/h 23.3 km/h 87 % 0 mm
10:23 -13.8 °C -14.9 °C 33639.9 hPa SW 2.3 km/h 10.3 km/h 88 % 0 mm
10:29 -13.8 °C -14.9 °C 33639.9 hPa SW 20.9 km/h 23.3 km/h 88 % 0 mm
10:35 -13.8 °C -14.8 °C 33639.9 hPa SSW 5.1 km/h 20.8 km/h 89 % 0 mm
10:41 -13.8 °C -14.7 °C 33639.9 hPa SSW 10.3 km/h 20.8 km/h 89 % 0 mm
10:47 -13.6 °C -14.5 °C 33639.9 hPa WSW 10.3 km/h 20.8 km/h 89 % 0 mm
10:53 -13.4 °C -14.4 °C 33626.4 hPa SW 15.6 km/h 15.6 km/h 88 % 0 mm
10:59 -13.3 °C -14.6 °C 33626.4 hPa SSW 12.7 km/h 23.3 km/h 86 % 0 mm
11:05 -13.3 °C -14.4 °C 33639.9 hPa South 2.3 km/h 12.9 km/h 87 % 0 mm
11:11 -13.2 °C -14.3 °C 33626.4 hPa WSW 7.6 km/h 18.2 km/h 87 % 0 mm
11:17 -13.1 °C -14.6 °C 33626.4 hPa SW 28.5 km/h 36.2 km/h 83 % 0 mm
11:23 -12.9 °C -14.6 °C 33626.4 hPa SW 26.2 km/h 31.1 km/h 82 % 0 mm
11:29 -12.7 °C -14.6 °C 33626.4 hPa SW 15.6 km/h 18.2 km/h 80 % 0 mm
11:35 -12.6 °C -14.5 °C 33626.4 hPa SW 20.9 km/h 20.9 km/h 79 % 0 mm
11:41 -12.4 °C -14.6 °C 33626.4 hPa SSW 20.9 km/h 28.5 km/h 77 % 0 mm
11:47 -12.7 °C -14.6 °C 33626.4 hPa SSW 12.7 km/h 20.8 km/h 79 % 0 mm
11:53 -12.7 °C -14.6 °C 33626.4 hPa SW 12.7 km/h 20.8 km/h 80 % 0 mm
11:59 -12.7 °C -14.6 °C 33626.4 hPa SSW 17.9 km/h 25.9 km/h 79 % 0 mm
12:05 -12.8 °C -14.7 °C 33626.4 hPa SSW 20.9 km/h 28.5 km/h 79 % 0 mm
12:11 -12.8 °C -14.7 °C 33626.4 hPa SW 17.9 km/h 23.3 km/h 79 % 0 mm
12:17 -12.8 °C -14.9 °C 33626.4 hPa West 15.6 km/h 25.9 km/h 77 % 0 mm
12:23 -12.8 °C -14.8 °C 33626.4 hPa SSW 5.1 km/h 18.2 km/h 78 % 0 mm
12:29 -12.7 °C -14.6 °C 33616.2 hPa SW 12.7 km/h 15.6 km/h 80 % 0 mm
12:35 -12.7 °C -14.6 °C 33616.2 hPa SW 7.6 km/h 10.3 km/h 79 % 0 mm
12:41 -12.5 °C -14.5 °C 33616.2 hPa SW 15.6 km/h 15.6 km/h 78 % 0 mm
12:47 -12.4 °C -14.7 °C 33616.2 hPa SW 15.6 km/h 28.5 km/h 75 % 0 mm
12:53 -12.4 °C -14.9 °C 33616.2 hPa SSW 17.9 km/h 25.9 km/h 73 % 0 mm
12:59 -12.4 °C -14.8 °C 33616.2 hPa SSW 20.9 km/h 25.9 km/h 74 % 0 mm
13:05 -12.4 °C -14.8 °C 33602.7 hPa WSW 17.9 km/h 18.2 km/h 74 % 0 mm
13:11 -12.4 °C -14.9 °C 33602.7 hPa SW 7.6 km/h 25.9 km/h 74 % 0 mm
13:17 -12.4 °C -14.7 °C 33602.7 hPa SW 12.7 km/h 15.6 km/h 75 % 0 mm
13:23 -12.4 °C -14.9 °C 33602.7 hPa SW 7.6 km/h 10.3 km/h 74 % 0 mm
13:29 -12.4 °C -14.7 °C 33602.7 hPa SSW 15.6 km/h 15.6 km/h 76 % 0 mm
13:35 -12.4 °C -14.7 °C 33602.7 hPa SW 2.3 km/h 10.3 km/h 75 % 0 mm
13:41 -12.3 °C -14.7 °C 33602.7 hPa SSW 15.6 km/h 20.8 km/h 75 % 0 mm
13:47 -12.3 °C -14.7 °C 33602.7 hPa SSW 12.7 km/h 20.8 km/h 75 % 0 mm
13:53 -12.3 °C -14.8 °C 33602.7 hPa SW 12.7 km/h 28.5 km/h 73 % 0 mm
13:59 -12.2 °C -14.9 °C 33602.7 hPa SW 20.9 km/h 28.5 km/h 72 % 0 mm
14:05 -12.1 °C -14.9 °C 33592.5 hPa SSW 20.9 km/h 33.6 km/h 71 % 0 mm
14:11 -12 °C -14.9 °C 33592.5 hPa SW 31.4 km/h 36.2 km/h 70 % 0 mm
14:17 -11.8 °C -15 °C 33592.5 hPa SSW 10.3 km/h 31.1 km/h 68 % 0 mm
14:23 -11.6 °C -14.6 °C 33592.5 hPa SW 26.2 km/h 31.1 km/h 70 % 0 mm
14:29 -11.6 °C -14.9 °C 33582.3 hPa SSW 33.6 km/h 36.2 km/h 67 % 0 mm
14:35 -11.8 °C -14.6 °C 33592.5 hPa SW 46.3 km/h 49.2 km/h 71 % 0 mm
14:41 -12.4 °C -15.2 °C 33592.5 hPa West 41.7 km/h 62.1 km/h 71 % 0 mm
14:47 -13.1 °C -14.9 °C 33602.7 hPa West 20.9 km/h 33.6 km/h 79 % 0 mm
14:53 -13.3 °C -15 °C 33602.7 hPa WSW 20.9 km/h 31.1 km/h 81 % 7.62 mm
14:59 -13.2 °C -14.9 °C 33592.5 hPa West 7.6 km/h 12.9 km/h 81 % 7.62 mm
15:05 -12.9 °C -14.6 °C 33592.5 hPa SW 12.7 km/h 12.9 km/h 81 % 7.62 mm
15:11 -12.6 °C -14.8 °C 33592.5 hPa South 5.1 km/h 18.2 km/h 76 % 7.62 mm
15:17 -12.3 °C -14.9 °C 33592.5 hPa SSW 7.6 km/h 12.9 km/h 73 % 7.62 mm
15:23 -12.1 °C -14.7 °C 33592.5 hPa SW 7.6 km/h 15.6 km/h 73 % 7.62 mm
15:29 -11.9 °C -14.5 °C 33592.5 hPa SSE 12.7 km/h 18.2 km/h 73 % 7.62 mm
15:35 -12.1 °C -14.8 °C 33582.3 hPa SW 15.6 km/h 23.3 km/h 72 % 7.62 mm
15:41 -12.1 °C -14.4 °C 33582.3 hPa SSW 12.7 km/h 15.6 km/h 75 % 7.62 mm
15:47 -12.1 °C -14.6 °C 33582.3 hPa SW 10.3 km/h 18.2 km/h 74 % 7.62 mm
15:53 -12.2 °C -14.6 °C 33582.3 hPa SW 10.3 km/h 15.6 km/h 74 % 0 mm
15:59 -12.2 °C -14.6 °C 33582.3 hPa WSW 7.6 km/h 12.9 km/h 75 % 0 mm
16:05 -12.2 °C -14.4 °C 33582.3 hPa West 7.6 km/h 7.7 km/h 76 % 0 mm
16:11 -12.1 °C -14.3 °C 33582.3 hPa West 5.1 km/h 7.7 km/h 76 % 0 mm
16:17 -12.1 °C -14.5 °C 33568.8 hPa West 2.3 km/h 5.1 km/h 74 % 0 mm
16:23 -12.1 °C -14.7 °C 33568.8 hPa Calm   5.1 km/h 72 % 0 mm
16:29 -12 °C -14.7 °C 33568.8 hPa South 7.6 km/h 12.9 km/h 72 % 0 mm
16:35 -12 °C -14.7 °C 33568.8 hPa SSW 2.3 km/h 7.7 km/h 72 % 0 mm
16:41 -11.8 °C -14.6 °C 33568.8 hPa SSW 5.1 km/h 7.7 km/h 71 % 0 mm
16:47 -11.8 °C -14.3 °C 33568.8 hPa Calm     73 % 0 mm
16:53 -11.8 °C -14.6 °C 33568.8 hPa SSW 5.1 km/h 7.7 km/h 71 % 0 mm
16:59 -11.8 °C -14.4 °C 33568.8 hPa SSW 2.3 km/h 7.7 km/h 72 % 0 mm
17:05 -11.8 °C -14.6 °C 33568.8 hPa Calm   5.1 km/h 71 % 0 mm
17:11 -11.9 °C -14.4 °C 33568.8 hPa SSW 5.1 km/h 7.7 km/h 73 % 0 mm
17:17 -12.1 °C -14.8 °C 33568.8 hPa WSW 36.5 km/h 38.8 km/h 71 % 0 mm
17:23 -12.4 °C -15 °C 33582.3 hPa West 26.2 km/h 36.2 km/h 73 % 0 mm
17:30 -12.7 °C -14.9 °C 33582.3 hPa West 20.9 km/h 31.1 km/h 76 % 0 mm
17:36 -12.8 °C -14.9 °C 33582.3 hPa West 15.6 km/h 25.9 km/h 77 % 0 mm
17:42 -12.9 °C -14.9 °C 33582.3 hPa West 12.7 km/h 25.9 km/h 78 % 0 mm
17:48 -13 °C -14.9 °C 33582.3 hPa West 7.6 km/h 10.3 km/h 79 % 0 mm
17:54 -13.1 °C -14.9 °C 33582.3 hPa West 2.3 km/h 10.3 km/h 80 % 0 mm
18:00 -13.1 °C -14.9 °C 33582.3 hPa WSW 5.1 km/h 10.3 km/h 80 % 0 mm
18:06 -13.2 °C -14.8 °C 33592.5 hPa WSW 10.3 km/h 12.9 km/h 82 % 7.62 mm
18:12 -13.3 °C -14.7 °C 33592.5 hPa SW 7.6 km/h 15.6 km/h 84 % 7.62 mm
18:18 -13.4 °C -14.8 °C 33592.5 hPa West 7.6 km/h 18.2 km/h 85 % 7.62 mm
18:24 -13.5 °C -14.7 °C 33592.5 hPa West 7.6 km/h 12.9 km/h 86 % 7.62 mm
18:30 -13.5 °C -14.7 °C 33592.5 hPa WSW 7.6 km/h 12.9 km/h 86 % 7.62 mm
18:36 -13.5 °C -14.7 °C 33602.7 hPa SW 10.3 km/h 15.6 km/h 86 % 7.62 mm
18:42 -13.5 °C -14.8 °C 33602.7 hPa WSW 15.6 km/h 18.2 km/h 85 % 7.62 mm
18:48 -13.5 °C -14.7 °C 33592.5 hPa SSW 7.6 km/h 7.7 km/h 86 % 7.62 mm
18:54 -13.6 °C -14.7 °C 33592.5 hPa Calm     87 % 12.7 mm
19:00 -13.6 °C -14.7 °C 33592.5 hPa Calm   2.6 km/h 88 % 12.7 mm
19:06 -13.7 °C -14.7 °C 33602.7 hPa West 10.3 km/h 10.3 km/h 88 % 7.62 mm
19:12 -13.8 °C -14.8 °C 33616.2 hPa WSW 28.5 km/h 49.2 km/h 88 % 7.62 mm
19:18 -14.2 °C -15.2 °C 33626.4 hPa WSW 28.5 km/h 31.1 km/h 88 % 12.7 mm
19:24 -14.3 °C -15.3 °C 33626.4 hPa WSW 20.9 km/h 28.5 km/h 89 % 12.7 mm
19:30 -14.5 °C -15.3 °C 33626.4 hPa SW 15.6 km/h 31.1 km/h 90 % 12.7 mm
19:36 -14.6 °C -15.4 °C 33626.4 hPa West 10.3 km/h 23.3 km/h 90 % 12.7 mm
19:42 -14.6 °C -15.3 °C 33626.4 hPa WSW 23 km/h 25.9 km/h 91 % 12.7 mm
19:48 -14.6 °C -15.4 °C 33626.4 hPa SW 15.6 km/h 28.5 km/h 91 % 12.7 mm
19:54 -14.6 °C -15.4 °C 33626.4 hPa SW 20.9 km/h 23.3 km/h 91 % 12.7 mm
20:00 -14.6 °C -15.3 °C 33626.4 hPa SW 20.9 km/h 23.3 km/h 92 % 12.7 mm
20:06 -14.7 °C -15.2 °C 33626.4 hPa SW 20.9 km/h 23.3 km/h 93 % 20.32 mm
20:12 -14.7 °C -15.3 °C 33626.4 hPa SSW 10.3 km/h 23.3 km/h 93 % 38.1 mm
20:18 -14.8 °C -15.3 °C 33626.4 hPa South 2.3 km/h 10.3 km/h 93 % 38.1 mm
20:24 -14.8 °C -15.3 °C 33616.2 hPa SE 2.3 km/h 5.1 km/h 94 % 45.72 mm
20:30 -14.8 °C -15.3 °C 33616.2 hPa Calm   5.1 km/h 94 % 45.72 mm
20:36 -14.8 °C -15.3 °C 33616.2 hPa Calm   5.1 km/h 94 % 45.72 mm
20:42 -14.8 °C -15.3 °C 33602.7 hPa SE 5.1 km/h 7.7 km/h 94 % 45.72 mm
20:48 -14.8 °C -15.3 °C 33602.7 hPa SE 2.3 km/h 7.7 km/h 94 % 45.72 mm
20:54 -14.8 °C -15.3 °C 33602.7 hPa SE 5.1 km/h 10.3 km/h 94 % 45.72 mm
21:00 -14.8 °C -15.3 °C 33602.7 hPa ESE 7.6 km/h 7.7 km/h 94 % 38.1 mm
21:06 -14.8 °C -15.3 °C 33602.7 hPa SSE 10.3 km/h 12.9 km/h 94 % 33.02 mm
21:12 -14.8 °C -15.3 °C 33602.7 hPa SSE 2.3 km/h 7.7 km/h 94 % 20.32 mm
21:18 -14.9 °C -15.4 °C 33602.7 hPa Calm   10.3 km/h 94 % 12.7 mm
21:24 -14.9 °C -15.4 °C 33602.7 hPa SSE 2.3 km/h 7.7 km/h 94 % 7.62 mm
21:30 -14.9 °C -15.4 °C 33602.7 hPa Calm   12.9 km/h 94 % 0 mm
21:36 -14.9 °C -15.4 °C 33602.7 hPa Calm   10.3 km/h 94 % 0 mm
21:42 -14.9 °C -15.4 °C 33602.7 hPa SE 2.3 km/h 7.7 km/h 94 % 0 mm
21:48 -14.9 °C -15.4 °C 33602.7 hPa SE 2.3 km/h 7.7 km/h 94 % 0 mm
21:54 -14.9 °C -15.4 °C 33602.7 hPa SW 2.3 km/h 10.3 km/h 94 % 0 mm
22:02 -14.9 °C -15.4 °C 33602.7 hPa SSE 2.3 km/h 7.7 km/h 94 % 0 mm
22:08 -14.9 °C -15.4 °C 33602.7 hPa SSE 2.3 km/h 12.9 km/h 94 % 0 mm
22:14 -14.9 °C -15.4 °C 33592.5 hPa SE 5.1 km/h 7.7 km/h 94 % 0 mm
22:20 -14.9 °C -15.4 °C 33592.5 hPa SE 5.1 km/h 15.6 km/h 94 % 0 mm
22:26 -14.9 °C -15.4 °C 33592.5 hPa South 10.3 km/h 18.2 km/h 94 % 0 mm
22:32 -14.8 °C -15.3 °C 33592.5 hPa SSE 10.3 km/h 20.8 km/h 94 % 0 mm
22:38 -14.8 °C -15.4 °C 33592.5 hPa SE 23 km/h 28.5 km/h 93 % 0 mm
22:46 -14.7 °C -15.3 °C 33592.5 hPa SSW 15.6 km/h 31.1 km/h 92 % 0 mm
22:52 -14.6 °C -15.4 °C 33592.5 hPa SSE 20.9 km/h 33.6 km/h 91 % 0 mm
22:58 -14.6 °C -15.3 °C 33592.5 hPa SSW 10.3 km/h 33.6 km/h 91 % 0 mm
23:04 -14.5 °C -15.3 °C 33592.5 hPa South 23 km/h 36.2 km/h 90 % 0 mm
23:10 -14.4 °C -15.4 °C 33592.5 hPa South 23 km/h 33.6 km/h 89 % 0 mm
23:16 -14.4 °C -15.4 °C 33602.7 hPa SSW 26.2 km/h 33.6 km/h 89 % 0 mm
23:22 -14.5 °C -15.3 °C 33592.5 hPa South 12.7 km/h 31.1 km/h 90 % 0 mm
23:29 -14.5 °C -15.3 °C 33602.7 hPa South 20.9 km/h 33.6 km/h 90 % 0 mm
23:35 -14.5 °C -15.3 °C 33602.7 hPa SSW 36.5 km/h 54.4 km/h 91 % 0 mm
23:40 -14.5 °C -15.3 °C 33602.7 hPa SSW 23 km/h 41.4 km/h 91 % 0 mm
23:47 -14.5 °C -15.3 °C 33602.7 hPa SSW 33.6 km/h 33.6 km/h 91 % 0 mm
23:53 -14.5 °C -15.2 °C 33602.7 hPa SW 33.6 km/h 41.4 km/h 92 % 0 mm
23:59 -14.5 °C -15.3 °C 33602.7 hPa SSW 20.9 km/h 46.7 km/h 91 % 0 mm
Meteo18
Compliments of Weather Underground - 4 mb

Script developed by  Jim McMurry - jmcmurry@mwt.net Adapted for the template by  Wim van der Kuil - Leuven-Template.eu

You find our weather info also at:

European Weather Network

Weather Underground

Equipment we use:

Weather-station
Davis Vue

Weather-program
Meteobridge

Weather-server
Raspberry PI 2 B+

Provider
1 and 1

Davis Vue

Meteobridge

Raspberry PI 2 B+

1 and 1